Theta_e
312 312 312 312 311 309 307 306 305 305 305 305 305 305 305 305 306 306 306 306 306 306 307 307 307 307 308 307 308 309 309 311 313 317 320 319 315 313 312 312 314 314 315 315 314 315 314 315 314 313 314 316 317 317 318 318 332 346 344 336 323 316 316 316 319 321 321 320 319 317 318 320 318 317 314 313 316 316 315 314 313 313 311 312 313 315 316 317
312 312 312 311 310 309 308 307 305 305 305 305 305 305 305 305 305 306 306 306 306 306 306 307 307 307 307 308 308 309 309 313 317 318 318 318 314 312 313 313 314 314 314 315 314 315 315 316 313 313 317 317 316 318 320 318 324 337 341 331 321 321 318 314 319 319 317 318 318 317 317 319 317 317 315 315 316 314 319 317 313 315 313 313 314 315 316 317
312 312 310 310 310 307 307 306 305 305 305 306 305 305 306 306 306 306 306 306 306 306 306 307 307 307 307 308 309 310 311 316 320 319 316 315 313 312 313 313 314 314 314 315 315 315 315 315 312 314 319 317 316 319 323 320 317 326 337 327 318 323 318 314 318 317 317 318 318 317 316 317 317 315 315 317 317 315 322 321 317 317 314 314 313 313 315 315
311 311 309 309 309 307 305 304 304 306 305 305 305 305 306 306 306 306 306 306 306 306 306 307 307 307 308 309 310 310 313 318 320 319 314 313 313 313 314 313 313 314 315 315 315 315 315 314 313 316 319 317 321 323 320 319 317 320 329 324 317 319 317 315 317 317 319 319 320 318 316 316 315 315 316 318 316 316 321 321 321 321 315 315 314 312 314 314
310 311 310 309 310 307 305 304 305 306 306 305 305 306 306 306 307 306 306 305 306 307 307 307 307 308 309 310 311 311 315 319 318 315 313 312 313 313 314 313 313 314 314 316 315 315 315 313 314 320 319 315 321 323 316 315 318 318 318 319 318 317 317 316 316 318 318 318 320 318 315 316 315 316 317 317 317 319 322 320 320 318 314 314 314 312 312 312
310 310 311 311 311 310 309 309 307 305 306 306 306 306 305 306 306 307 307 306 306 307 307 308 308 309 310 311 312 312 315 317 315 314 312 313 313 313 314 313 313 314 315 316 315 315 316 315 317 321 320 316 317 318 316 314 317 319 316 316 318 317 318 317 317 319 319 320 319 318 316 315 316 316 317 317 317 318 317 316 316 313 310 312 312 311 312 311
310 311 310 310 312 312 310 310 308 306 307 306 307 307 306 306 306 306 307 307 307 308 309 309 309 309 311 312 315 318 318 317 315 314 313 313 313 313 313 313 313 314 315 315 315 317 318 320 319 318 320 319 316 316 317 317 321 323 319 317 318 317 318 319 319 320 321 320 317 317 315 315 318 315 316 318 316 313 311 309 309 309 309 310 311 311 311 311
311 311 311 311 312 312 310 309 307 309 309 307 306 306 307 306 305 306 307 308 309 309 309 310 310 310 311 313 317 321 320 319 316 313 313 313 312 313 312 313 313 315 316 315 315 317 318 319 316 315 319 318 315 317 316 318 324 324 318 317 319 318 319 320 320 321 320 318 316 316 315 317 319 314 315 319 315 312 310 307 307 308 309 311 314 311 309 310
312 311 311 311 312 312 311 309 308 311 311 309 308 306 306 306 305 306 306 308 309 310 310 310 311 312 313 313 315 317 316 318 316 313 313 312 313 313 312 313 315 316 316 316 315 315 316 318 316 315 317 315 315 318 317 318 321 320 318 319 319 318 318 318 319 320 320 318 316 316 317 319 317 313 316 318 313 312 310 310 310 311 313 315 315 310 308 309
312 312 311 310 311 312 312 311 309 309 310 309 309 307 306 306 306 306 306 307 309 310 310 311 312 313 314 313 312 312 315 318 315 313 313 312 313 312 313 314 315 316 316 316 315 315 316 316 315 314 316 316 316 316 317 317 318 318 319 318 319 318 318 317 318 320 319 317 316 316 318 319 315 314 317 316 311 311 312 312 312 314 316 314 314 310 307 308
312 312 312 311 310 311 312 311 311 310 311 310 307 306 307 306 306 305 306 308 309 310 310 312 313 313 313 314 315 315 315 316 314 314 313 313 313 312 313 314 315 317 316 316 315 314 315 314 313 312 315 316 316 317 316 315 315 317 318 318 321 321 319 318 317 318 316 315 317 317 317 317 313 315 320 316 310 311 313 313 312 314 315 313 314 311 307 307
312 312 312 311 310 311 311 312 312 312 313 311 308 307 307 307 307 306 307 308 309 310 311 313 313 315 314 314 318 318 317 316 313 313 313 312 312 312 314 315 316 316 316 316 315 314 313 313 314 314 316 315 316 317 315 315 315 316 317 318 324 326 322 319 318 317 315 315 318 316 316 319 316 316 318 313 310 311 312 312 312 313 313 313 313 311 308 306
311 311 311 311 311 311 312 313 313 313 314 313 309 309 309 309 308 307 308 309 310 312 313 313 314 315 314 315 316 315 317 317 313 313 313 312 313 314 315 316 316 316 317 317 316 314 312 313 315 316 316 317 318 315 315 315 315 318 317 317 323 326 325 320 315 316 315 315 317 316 318 327 326 318 314 310 310 312 312 312 312 312 313 313 312 312 311 306
311 311 311 311 311 311 311 313 314 314 314 313 310 310 310 310 309 308 309 310 312 313 314 314 315 315 314 316 316 314 317 318 315 314 313 314 314 315 316 316 316 316 316 316 315 314 313 314 314 314 314 317 317 313 319 321 319 319 315 322 325 320 329 328 316 316 316 314 316 316 319 326 327 320 312 309 310 312 313 312 311 312 312 312 312 312 312 307
312 311 311 311 311 311 311 312 314 314 314 312 310 311 311 311 310 309 310 313 314 314 314 314 315 316 318 318 316 315 318 318 318 316 315 315 316 316 316 316 316 315 315 315 314 313 313 313 315 317 314 314 316 318 328 329 328 326 316 328 331 318 332 335 316 316 317 314 313 316 320 321 321 319 312 309 310 311 313 312 311 312 311 311 311 311 311 308
313 313 312 311 311 311 311 311 312 314 313 312 312 312 312 312 313 312 313 314 315 315 315 316 314 315 320 320 316 316 317 317 318 317 317 317 316 316 315 315 314 314 314 313 313 313 313 316 315 316 316 316 322 331 337 330 333 337 322 326 333 321 327 328 316 316 317 315 313 314 321 322 320 316 310 309 310 311 313 312 311 311 310 310 310 309 309 307
314 314 312 312 311 311 310 310 312 312 311 312 313 312 312 314 314 314 314 314 316 318 317 316 315 314 315 316 316 318 317 316 317 317 317 316 316 316 314 314 313 312 314 312 313 314 313 317 315 316 320 319 323 333 335 326 329 336 324 321 330 325 322 325 322 318 314 316 315 313 316 319 319 315 310 310 310 311 313 312 311 310 309 309 309 309 308 307
314 313 313 312 311 311 310 310 312 311 312 313 313 313 313 315 315 315 315 314 316 316 315 315 313 312 313 313 316 319 317 315 316 316 317 317 316 315 314 314 312 312 315 315 314 314 316 320 321 322 322 318 320 327 327 325 329 334 327 323 327 324 320 324 324 318 314 315 316 315 315 315 316 315 312 310 309 311 312 311 310 310 309 309 309 309 307 306
313 313 313 312 311 311 310 311 311 311 313 314 314 315 314 315 316 316 315 316 316 312 312 316 313 312 314 315 316 317 316 316 316 316 316 317 315 314 314 313 314 316 318 318 316 316 321 325 324 323 322 319 320 322 323 326 331 335 333 331 330 326 323 324 324 320 316 315 317 316 315 315 315 314 314 312 310 310 311 310 311 310 310 309 309 309 308 307
313 313 312 312 312 311 311 311 311 312 313 314 316 315 315 318 318 316 318 319 319 315 316 319 314 315 318 318 318 317 317 317 316 317 316 315 314 314 314 312 317 320 319 324 321 316 321 324 324 324 323 322 319 319 320 322 325 327 328 329 329 327 325 324 324 321 315 315 320 318 315 315 315 315 315 312 311 310 311 311 311 311 311 309 309 309 308 307
314 314 313 312 312 311 311 311 312 313 314 314 316 316 318 321 316 314 321 322 317 314 318 320 314 315 317 317 317 316 318 318 315 317 316 314 314 314 316 315 319 320 320 326 322 315 318 322 325 325 321 319 319 318 318 318 319 321 322 323 325 325 323 323 322 319 314 315 322 321 317 315 314 314 313 313 313 312 311 311 311 311 310 309 309 309 308 306
314 314 314 313 312 311 311 312 313 315 315 314 315 316 318 318 314 314 318 321 319 315 316 317 314 316 316 315 317 315 319 321 317 317 316 314 314 315 317 318 321 323 320 321 321 319 320 322 322 320 317 318 319 318 317 318 319 319 321 320 322 325 322 322 323 318 314 316 322 324 319 316 316 315 314 314 315 313 311 310 311 311 311 309 309 309 308 307
314 314 314 314 313 311 311 312 314 315 315 315 314 315 316 315 315 314 314 319 323 320 317 317 316 318 318 315 316 316 318 322 321 319 316 313 315 317 317 318 320 322 319 319 323 324 324 327 322 316 317 318 319 319 318 317 318 321 322 320 322 324 321 323 324 318 316 316 319 322 319 316 316 316 317 315 314 313 313 312 311 311 311 309 308 308 307 307
315 314 314 314 313 312 312 313 314 315 315 315 314 315 317 316 316 316 318 320 322 322 319 317 316 317 318 315 315 317 317 320 321 319 315 313 315 316 317 319 319 320 319 319 322 323 324 327 321 316 318 320 320 320 320 320 321 322 323 321 321 323 322 324 323 320 324 324 318 318 320 321 321 318 318 317 315 314 315 315 313 312 312 311 309 308 307 306
316 315 314 314 313 312 312 313 314 315 315 316 315 315 316 317 315 315 321 323 322 324 320 315 317 318 317 314 315 317 317 318 320 317 314 313 315 316 316 317 319 321 319 317 319 320 321 320 320 320 319 319 320 321 322 324 323 323 324 323 321 323 323 323 322 321 327 332 323 317 324 333 334 325 321 321 318 317 317 317 315 312 312 312 310 309 306 305
317 316 314 313 313 312 313 314 315 315 316 315 315 315 316 317 316 315 320 325 323 322 319 316 318 319 316 315 315 316 318 319 318 315 314 313 314 316 317 316 318 320 318 317 318 319 319 318 321 326 323 322 323 321 324 323 320 323 327 325 322 323 323 323 324 323 328 332 323 319 326 333 331 326 326 329 325 322 321 318 315 313 312 310 309 308 306 304
318 317 315 314 312 312 314 315 316 316 317 316 314 315 316 316 316 315 318 324 321 318 320 318 315 315 317 316 314 315 318 318 317 314 313 313 314 315 318 318 317 317 316 318 320 319 320 319 320 324 325 325 323 322 324 321 321 327 327 325 324 322 323 323 323 324 328 328 323 323 328 327 324 324 326 329 328 326 324 320 315 312 311 309 308 307 306 304
318 318 317 315 312 313 314 315 316 316 316 317 314 315 317 316 316 317 318 321 319 317 321 318 314 314 316 315 314 316 317 318 319 317 312 312 314 315 317 318 317 317 317 319 321 319 320 323 322 322 323 324 323 323 324 321 322 327 324 325 326 324 327 327 325 326 326 325 325 324 324 325 328 327 324 323 323 325 324 321 318 314 311 309 308 307 305 304
318 318 318 315 313 313 315 316 316 316 316 317 316 316 317 315 315 319 321 320 319 320 319 318 316 315 315 315 315 317 317 318 320 317 313 312 313 314 316 318 317 318 317 317 320 320 320 321 320 321 321 322 325 327 325 321 321 322 321 324 326 326 329 332 330 329 329 327 327 326 324 326 329 328 325 321 323 325 323 321 321 316 311 309 307 307 305 304
318 318 318 316 314 312 314 316 316 316 316 316 317 316 317 318 318 321 324 322 322 323 317 316 318 317 316 316 316 318 318 318 317 314 315 315 314 315 315 315 318 322 320 317 320 322 319 315 316 320 320 322 325 323 320 322 319 320 325 329 331 330 331 334 332 328 329 328 326 328 327 326 329 329 327 324 325 326 322 323 324 317 310 308 307 306 305 303
318 318 318 317 314 313 314 315 316 317 316 316 317 316 317 321 322 324 325 321 321 322 317 317 319 317 316 318 318 319 319 318 315 315 317 316 316 318 317 316 319 323 322 319 322 323 320 317 318 319 319 322 325 320 318 320 318 323 334 334 331 332 332 333 331 327 329 328 326 327 324 323 327 328 326 324 324 324 322 323 326 322 314 308 306 305 304 303
319 318 319 317 314 313 314 316 316 317 316 316 317 317 320 323 323 326 326 321 323 325 321 321 320 317 317 318 319 318 319 319 316 317 319 317 317 317 317 319 320 321 322 322 323 322 321 323 322 317 316 321 326 324 321 319 319 324 332 329 327 329 329 331 330 328 328 326 321 320 321 323 324 324 324 324 323 323 321 318 322 325 316 308 305 304 303 302
320 319 319 318 315 313 314 316 316 316 316 316 316 318 321 325 325 326 325 325 327 324 321 323 320 318 318 320 321 318 318 320 317 317 318 317 319 317 317 320 319 322 327 322 320 322 324 325 321 317 318 321 322 323 322 321 322 323 325 327 327 328 330 333 332 328 328 327 320 316 320 323 324 325 324 321 321 323 321 318 320 320 315 309 305 304 303 302
320 319 318 317 315 314 314 315 316 316 315 316 318 319 321 325 327 326 324 325 325 322 322 323 319 317 318 321 322 318 319 321 317 318 319 318 320 319 319 320 318 323 329 323 320 323 325 326 323 319 321 322 319 320 324 325 321 320 322 325 326 329 334 336 334 331 330 329 321 315 321 328 329 327 322 319 320 320 318 317 315 313 311 308 305 304 303 301
320 319 318 316 315 314 314 315 316 316 315 316 319 320 322 324 326 328 326 324 325 324 322 320 319 320 320 322 323 318 320 323 317 317 320 319 320 320 319 319 316 321 327 322 321 322 322 327 327 320 319 320 318 319 324 325 321 320 323 324 324 328 331 329 328 327 326 327 323 319 323 328 328 323 319 318 317 316 316 313 312 312 309 306 305 304 303 301
319 319 318 316 315 315 315 315 316 315 315 317 319 321 322 324 325 327 326 324 325 325 322 320 322 323 321 322 323 319 320 324 320 319 321 319 319 319 318 319 316 317 320 320 324 324 322 327 323 316 317 319 318 321 322 323 324 321 320 323 322 322 324 325 325 320 320 325 325 322 324 326 325 321 319 318 316 316 316 312 311 310 307 305 305 303 302 301
318 317 317 316 316 316 315 315 316 315 315 318 320 320 321 323 325 326 325 323 324 322 322 324 324 323 322 322 323 321 320 323 320 319 322 319 320 320 318 320 318 315 317 320 325 325 325 328 321 316 319 316 314 321 322 319 321 322 323 323 320 320 325 329 329 325 325 328 326 323 324 326 324 323 319 316 317 319 317 314 311 308 305 305 304 303 302 301
318 317 317 317 317 316 315 316 316 315 316 318 319 319 319 322 324 324 323 323 323 322 323 325 323 323 323 322 323 321 320 322 319 319 322 320 321 321 318 319 319 315 315 317 322 325 324 327 322 316 319 316 313 320 323 317 316 321 326 322 321 327 328 326 328 329 329 329 329 326 324 322 321 324 323 320 323 325 319 315 313 309 306 304 303 303 302 301
318 318 318 318 317 317 316 316 315 315 317 319 318 319 319 320 320 321 323 321 321 322 323 324 323 323 323 322 323 321 320 322 319 318 322 321 321 322 317 319 320 316 315 315 319 325 325 326 324 316 314 316 315 318 323 320 315 316 319 317 320 327 326 325 327 328 330 330 330 329 326 323 322 324 325 323 326 326 320 316 315 310 306 303 303 303 301 301
317 319 320 318 317 317 316 316 316 317 318 318 317 318 319 318 318 321 323 321 321 323 322 323 324 324 323 322 322 322 321 321 319 318 322 321 320 321 317 317 321 318 315 314 318 322 323 324 325 318 313 317 320 320 321 321 317 317 319 320 320 320 321 325 325 325 329 330 331 330 326 326 326 322 322 323 323 322 319 318 315 309 305 303 303 302 301 300
317 321 321 318 317 317 316 316 318 318 319 318 317 317 318 318 318 319 320 319 322 325 322 322 324 323 324 323 322 322 321 321 319 318 321 320 320 323 320 317 320 319 316 316 318 321 323 326 328 323 317 319 323 320 317 318 319 318 319 320 320 319 321 325 324 323 324 326 329 329 326 327 327 321 320 322 322 318 316 316 315 310 306 304 303 302 301 301
318 321 320 318 317 317 316 318 319 319 319 317 316 316 316 318 318 318 319 318 320 322 321 323 325 323 323 323 323 323 322 322 320 318 320 320 319 323 323 319 319 318 316 317 318 319 324 329 330 325 320 320 322 317 314 317 319 317 319 322 321 319 321 325 326 324 322 324 325 326 326 324 319 317 320 321 321 319 315 313 313 311 306 304 303 302 301 301
318 319 318 317 317 317 317 319 320 319 318 315 314 315 315 316 318 318 319 319 318 320 322 324 325 323 322 323 323 323 323 323 321 320 321 321 319 323 325 323 320 317 317 318 318 319 323 326 327 325 322 320 320 317 314 316 317 317 320 323 321 318 319 323 326 324 324 325 323 323 327 322 313 314 318 318 317 318 316 311 311 311 307 304 303 303 302 301
317 317 317 316 317 317 319 321 319 317 316 313 313 315 314 315 317 318 318 318 318 321 322 323 324 323 323 325 325 323 323 324 323 321 322 323 320 320 322 323 320 318 319 321 320 319 321 325 326 326 326 324 322 320 317 316 316 318 320 320 317 318 319 321 322 321 322 324 324 325 326 321 316 317 319 319 318 319 316 311 309 311 309 305 303 303 302 301
317 316 316 316 315 316 319 321 319 316 314 312 313 314 314 314 315 316 317 317 317 319 321 323 324 324 324 324 324 324 323 324 324 323 322 323 320 317 318 320 319 320 323 325 324 320 323 327 325 324 327 328 326 325 322 318 317 318 320 319 317 318 320 319 320 321 322 323 323 324 323 323 323 321 320 322 321 320 319 312 308 310 309 305 304 303 302 301
317 316 316 316 315 317 318 318 318 317 314 313 313 313 314 315 315 315 317 318 317 317 320 324 325 324 324 324 324 325 324 323 325 325 323 324 323 318 315 317 319 321 321 322 323 323 326 328 323 323 326 326 326 327 323 320 320 319 320 320 318 318 318 319 321 322 323 323 322 322 322 324 325 322 321 325 323 321 320 314 310 309 307 305 304 303 301 301
315 317 317 317 316 317 318 317 318 318 316 313 313 314 314 314 315 315 316 318 318 317 319 322 323 323 324 324 324 325 324 323 324 325 324 324 323 316 312 314 317 317 317 317 319 323 327 326 323 324 325 323 326 328 321 319 320 320 319 319 317 317 317 319 320 321 323 325 323 322 322 323 322 321 323 325 323 322 321 316 311 308 306 305 304 303 302 302
312 315 316 316 316 316 317 317 317 317 316 314 313 314 314 315 315 316 316 317 318 318 319 321 322 322 323 324 324 324 324 324 324 324 323 323 322 317 314 314 313 313 316 316 316 322 326 325 323 324 324 323 325 325 320 318 319 319 318 319 317 317 317 318 319 320 322 323 322 323 324 323 321 320 321 323 323 322 320 315 310 307 306 305 304 304 303 302
309 312 312 312 315 316 316 316 316 316 315 314 312 313 314 314 315 316 316 316 317 318 319 321 320 321 321 322 323 323 323 324 323 323 322 322 322 321 319 318 314 312 316 318 317 320 324 324 323 322 322 323 323 323 321 320 319 319 319 318 317 317 317 317 318 318 319 321 320 322 323 321 320 321 322 321 320 317 314 313 311 309 307 305 304 304 303 301
309 311 312 311 313 315 314 313 314 315 315 314 313 313 313 314 315 316 316 316 317 317 319 320 320 319 320 320 322 322 322 323 324 323 322 321 322 321 321 322 318 313 314 318 318 318 320 323 322 321 322 323 321 321 321 320 320 320 320 318 317 316 316 317 317 317 318 319 318 319 321 320 319 322 322 319 316 312 312 313 313 310 307 305 305 304 302 301
306 305 307 311 313 314 314 313 313 315 314 313 312 312 313 313 314 315 316 315 316 316 318 319 319 319 319 319 320 321 320 321 321 320 320 321 321 321 321 321 318 315 314 316 317 318 319 320 319 319 323 323 321 321 321 319 318 319 319 319 317 316 316 316 317 317 318 319 318 319 320 319 318 320 320 319 316 314 313 312 311 309 307 306 305 304 303 302
304 302 304 309 312 313 313 313 314 315 315 313 312 311 312 313 313 315 315 315 316 316 316 317 318 318 319 319 319 319 319 319 319 319 320 320 320 321 321 319 319 320 318 315 316 318 318 319 318 319 322 321 321 323 321 319 319 320 321 320 318 316 316 316 316 316 316 317 319 319 319 319 321 321 318 318 317 315 314 311 310 309 307 305 304 304 303 302
Wind_Speed
5 5 4 4 4 5 5 5 5 5 5 5 5 5 6 6 5 5 4 4 4 5 4 5 5 5 6 6 7 7 7 6 3 1 3 4 4 5 5 5 5 4 3 4 5 4 5 7 9 11 8 3 3 2 3 2 3 5 4 4 3 2 2 3 6 6 4 4 5 4 3 7 3 1 2 4 8 5 4 6 4 6 7 6 7 9 8 9
5 4 4 4 5 6 6 6 6 6 6 6 5 5 6 6 6 5 5 5 5 5 5 5 5 6 6 6 7 8 8 6 2 2 3 5 7 7 7 7 5 5 4 4 6 7 5 5 9 9 6 3 3 2 2 2 3 4 3 4 2 5 1 2 5 4 3 5 5 2 2 5 5 3 2 2 1 2 5 4 3 5 5 6 8 9 10 12
5 5 5 5 5 6 6 6 6 6 6 5 6 5 5 5 5 5 5 5 5 5 5 6 6 6 6 6 7 8 8 4 1 3 3 7 9 9 9 7 5 5 4 4 6 7 4 4 6 4 4 2 2 3 3 3 2 3 4 4 3 6 2 1 2 3 3 6 6 2 1 3 3 2 1 4 4 1 3 3 2 2 3 3 4 9 11 13
5 5 6 5 5 5 5 5 5 5 5 5 5 5 4 3 4 5 5 5 5 5 5 6 6 6 6 7 7 7 6 4 1 3 6 10 11 11 9 6 5 5 3 4 5 6 5 4 2 2 4 2 3 4 3 2 1 2 3 4 5 4 3 1 2 3 3 5 6 3 3 3 2 1 3 7 5 2 5 6 6 7 9 7 4 7 11 12
5 5 6 5 4 4 4 4 4 4 4 4 4 4 4 4 4 4 5 5 5 5 6 6 6 6 6 7 6 7 5 4 2 5 10 12 12 10 8 5 5 4 2 3 4 5 6 4 5 5 4 1 4 5 1 2 2 3 2 3 5 4 3 3 4 3 4 5 5 4 3 3 1 1 4 8 6 5 6 6 7 9 10 9 8 9 10 10
5 5 5 4 4 4 4 3 3 3 2 2 2 3 3 4 4 3 4 5 5 5 5 5 6 6 6 7 6 5 3 2 3 7 12 12 11 9 6 4 3 3 1 2 4 5 6 5 6 4 3 2 2 3 0 4 3 3 1 1 2 3 4 3 3 3 4 7 5 4 3 2 2 1 3 7 6 5 4 4 7 8 11 12 11 10 9 8
5 5 5 5 4 3 4 4 3 2 1 1 1 2 2 3 3 3 4 4 5 5 5 5 5 5 5 5 4 3 3 2 4 10 13 12 11 8 5 2 2 2 1 2 5 4 4 6 5 3 4 3 1 2 1 4 5 5 1 1 1 2 5 5 5 4 6 7 5 4 3 2 4 3 1 3 5 3 2 6 10 11 13 14 11 9 9 9
6 5 5 5 4 3 3 3 3 2 2 2 2 2 2 3 3 3 4 4 4 4 5 5 5 5 5 3 1 3 2 3 5 12 13 11 10 7 4 1 1 1 2 5 5 2 3 6 3 2 4 2 2 2 1 4 6 5 2 2 1 0 2 4 4 5 5 4 4 5 3 5 6 3 1 4 5 3 5 7 10 11 11 10 8 8 9 10
7 7 6 6 5 4 3 2 3 3 3 3 4 3 3 3 3 3 4 4 4 4 5 4 4 4 4 1 3 2 4 4 8 13 12 11 10 7 4 1 1 1 3 4 4 4 2 2 1 2 3 2 2 2 1 3 1 1 3 1 0 1 2 2 3 4 5 3 4 4 2 6 4 2 2 5 7 5 5 7 7 8 8 7 6 7 10 10
8 8 7 7 6 4 3 3 3 4 3 4 5 4 4 3 4 4 4 4 4 4 4 3 3 3 2 2 5 1 4 3 10 13 11 11 10 7 5 1 1 1 2 3 4 5 3 3 3 3 5 1 2 1 2 2 2 2 4 1 1 2 3 2 4 5 3 1 4 5 4 4 3 1 3 4 7 6 7 7 5 7 6 6 5 6 10 10
9 8 8 8 6 4 4 4 3 4 4 5 5 4 3 3 3 4 4 4 4 4 3 3 2 2 2 3 5 3 3 3 10 12 11 11 9 7 4 3 3 2 1 3 4 4 4 3 2 3 2 1 2 2 2 1 2 2 3 1 4 5 5 3 5 5 2 1 4 7 3 4 3 1 6 6 8 7 9 7 5 7 6 6 5 4 7 9
10 10 9 8 7 4 4 5 4 4 5 5 4 3 3 4 4 4 5 5 5 4 4 3 2 2 0 3 3 6 4 3 10 11 11 11 9 7 4 3 3 2 2 2 4 4 4 1 4 4 0 2 2 2 0 1 2 2 4 2 6 7 5 4 4 4 5 2 5 7 2 5 3 5 6 5 9 7 8 8 6 7 5 5 6 4 5 7
12 11 9 9 8 6 5 5 5 4 6 5 4 3 4 5 4 4 5 5 6 5 4 3 3 2 2 0 4 7 6 5 9 11 11 10 8 7 5 3 3 2 1 3 4 4 4 2 5 5 2 4 1 1 2 2 2 1 3 2 4 7 5 5 1 4 6 3 4 6 2 6 7 7 4 5 10 8 8 8 6 6 5 5 5 4 5 6
13 12 11 10 9 8 7 5 5 6 7 6 4 3 4 4 4 4 5 5 6 5 4 4 3 3 3 2 4 5 7 7 9 11 11 10 8 6 6 4 3 3 2 3 3 3 2 2 5 5 2 3 1 1 3 5 3 1 2 2 2 2 4 7 2 6 6 2 3 6 1 7 9 8 5 6 9 10 9 8 7 6 6 5 5 5 5 6
14 12 11 10 10 10 10 8 6 6 8 7 4 3 4 3 3 4 5 5 5 5 4 4 4 4 2 3 4 3 7 8 9 12 11 10 9 6 6 6 4 3 2 1 2 2 2 2 5 4 0 2 3 3 4 4 3 3 1 3 3 2 5 8 2 7 7 1 2 5 2 7 9 7 6 7 7 9 9 8 8 7 7 6 5 5 5 5
14 12 12 12 11 10 11 8 6 7 8 5 3 3 3 2 2 4 5 5 5 4 4 4 4 5 2 2 1 2 7 7 9 12 11 11 9 6 7 7 4 3 3 2 3 3 3 4 3 2 2 2 4 5 4 4 4 4 1 3 3 2 3 6 3 3 4 3 1 3 3 4 6 4 4 7 7 8 7 8 9 8 8 8 6 5 5 5
15 14 13 12 12 12 11 8 7 8 4 2 3 3 1 2 2 3 5 7 7 5 5 4 4 4 0 1 1 3 6 8 10 13 13 11 8 9 10 6 3 4 4 4 4 3 4 4 1 0 2 3 3 5 4 2 3 4 1 2 4 3 2 3 4 3 2 4 4 4 4 7 6 3 4 7 7 8 8 9 10 9 8 7 6 6 5 6
18 17 15 12 12 13 12 10 9 6 1 2 3 1 3 4 4 4 7 10 9 7 5 3 4 2 3 3 3 3 5 9 12 14 13 10 9 11 8 4 4 6 5 4 3 3 3 4 2 1 3 2 2 5 3 5 4 3 3 2 3 3 3 4 4 2 4 4 5 5 5 11 12 7 6 8 7 9 11 10 8 8 8 7 7 6 6 6
19 18 16 13 12 13 14 12 9 5 1 3 2 4 6 5 5 4 6 7 6 4 2 3 4 3 4 5 4 4 7 11 12 13 12 11 12 9 5 5 6 6 4 2 2 1 2 3 4 2 1 3 4 6 8 8 7 7 5 4 4 4 4 5 5 5 6 4 5 8 8 11 13 11 8 8 8 9 10 8 6 7 7 7 7 7 7 7
19 18 16 14 13 13 14 13 10 6 3 3 3 5 4 3 3 0 2 3 4 3 1 5 7 3 0 1 5 9 10 9 6 9 12 13 13 9 4 4 6 5 3 4 2 0 3 3 2 4 7 9 9 9 9 6 6 5 4 3 4 4 5 5 4 6 4 5 6 9 9 11 11 11 10 7 7 9 10 9 8 8 8 9 9 8 8 7
19 18 16 15 13 12 15 14 10 7 5 5 4 3 3 3 3 2 3 4 10 10 5 5 4 1 1 3 11 13 8 3 1 6 14 12 12 9 2 2 4 1 2 4 3 1 3 4 7 11 10 9 8 8 7 4 4 2 3 3 4 4 6 6 4 4 1 4 6 6 7 11 11 11 9 5 7 11 13 13 12 11 11 9 10 9 8 6
20 19 17 15 13 13 15 13 11 8 5 6 5 2 2 1 2 1 2 1 10 15 12 6 3 5 3 4 12 10 4 3 1 4 12 10 8 7 2 3 5 3 2 3 3 1 1 4 12 12 6 5 4 6 6 5 5 4 2 3 5 4 4 7 5 3 0 3 5 5 6 9 10 10 9 7 9 10 12 14 14 13 12 11 10 10 9 8
20 19 17 17 14 13 15 15 12 7 7 8 6 4 2 1 3 3 2 1 5 7 8 8 6 6 4 2 10 10 2 5 5 5 12 11 5 5 5 5 5 4 4 5 5 4 3 6 13 10 6 6 4 4 6 4 4 5 4 3 5 3 2 4 5 3 1 2 3 4 6 7 7 8 9 10 10 7 7 11 13 11 12 12 12 11 11 12
21 20 18 17 15 13 15 15 10 8 10 10 10 7 4 3 2 3 2 0 3 4 5 10 9 7 8 6 10 12 3 4 5 6 14 13 5 3 5 6 5 5 4 9 9 7 7 7 5 6 9 8 7 4 6 5 3 5 6 6 6 5 6 6 4 3 3 4 2 3 7 7 6 9 11 7 4 5 6 8 10 10 9 9 9 9 11 12
22 20 18 17 16 14 16 12 9 12 10 9 12 11 8 5 2 3 3 1 3 4 3 7 5 6 12 10 12 11 2 3 4 9 18 17 9 4 3 3 4 5 8 8 7 6 9 5 3 8 7 8 7 6 6 7 5 5 6 9 9 8 8 6 2 4 4 5 4 1 4 7 4 7 11 6 2 6 6 7 12 11 8 8 9 9 9 9
23 21 19 18 17 19 16 7 11 14 10 9 12 12 10 7 2 2 3 3 4 4 1 4 4 8 13 10 10 7 1 5 4 11 20 19 12 5 3 3 2 5 7 6 3 4 5 6 5 7 7 7 7 6 6 8 6 4 6 9 10 8 6 5 2 2 1 4 4 2 2 7 6 5 9 5 4 8 7 8 12 9 7 9 9 9 10 10
24 23 22 19 20 25 15 6 12 14 7 9 12 13 12 10 4 1 3 4 5 3 4 2 2 7 10 10 13 9 3 5 2 8 14 14 9 2 3 6 2 3 4 4 2 3 5 8 7 6 6 7 6 5 6 8 7 5 5 7 8 8 7 6 5 4 3 3 4 3 3 5 9 6 7 7 6 9 10 12 12 8 8 9 9 9 11 11
25 25 25 21 24 30 16 6 15 16 7 5 12 16 12 11 7 1 4 0 4 3 4 2 1 4 4 9 15 8 2 3 5 4 4 7 8 1 2 8 6 7 6 6 5 3 4 8 10 10 6 6 6 5 7 10 6 5 3 6 6 6 5 3 5 3 1 2 4 2 3 3 9 6 1 3 7 9 13 16 13 9 10 9 9 10 10 10
28 26 27 24 25 29 17 8 14 18 14 8 12 18 15 11 7 3 4 3 2 2 1 1 2 2 3 7 10 5 2 2 2 3 1 3 5 2 3 6 5 7 7 6 7 2 2 6 9 10 7 7 5 2 7 11 6 4 6 7 6 5 5 5 4 3 2 2 5 6 5 3 9 5 3 2 4 9 12 13 8 7 11 10 9 9 9 9
31 28 28 25 26 30 23 15 15 18 18 11 11 17 16 9 4 4 2 3 1 1 0 1 1 3 8 10 5 1 3 2 1 2 2 1 1 4 1 2 5 5 3 5 6 3 2 2 3 4 4 6 5 3 3 7 6 5 7 7 7 6 5 4 2 4 1 5 5 9 10 6 6 4 4 4 4 7 9 8 5 3 9 9 8 9 10 9
35 31 31 30 32 34 23 17 20 19 18 15 13 17 12 3 2 5 6 2 1 2 2 1 1 5 12 14 7 3 3 1 1 5 3 1 2 3 1 1 3 3 1 5 5 4 4 2 1 2 2 4 6 5 3 1 4 6 5 5 4 4 5 4 4 4 1 6 5 9 10 9 8 6 3 5 5 5 7 6 6 6 9 9 8 8 9 9
39 35 36 35 34 36 24 16 24 22 17 20 19 12 7 2 1 5 4 1 0 4 5 4 4 7 11 10 8 7 5 2 3 7 6 4 5 6 6 6 5 3 3 6 4 3 3 4 3 2 1 4 6 4 4 4 3 4 5 6 4 2 3 2 3 0 4 7 3 3 5 6 10 7 5 9 10 8 7 6 6 8 9 10 10 9 8 8
43 41 40 40 38 40 31 21 24 24 21 25 18 4 2 5 7 9 7 4 2 2 4 3 3 7 11 8 5 6 4 2 5 5 4 5 5 8 8 6 5 3 2 5 4 2 3 5 2 1 3 3 8 7 3 1 3 5 6 6 5 3 0 2 4 2 4 6 4 0 3 3 6 4 9 14 13 7 5 6 7 7 9 11 11 9 8 8
44 43 43 43 42 41 35 25 24 29 29 24 13 3 4 6 8 11 13 9 2 1 2 4 6 7 9 7 5 8 5 3 6 6 4 6 5 7 6 6 7 3 3 4 3 5 5 6 4 8 4 5 10 9 6 6 5 5 5 6 6 6 4 4 4 4 4 4 4 1 2 3 3 3 7 10 8 5 3 5 5 4 5 7 8 9 9 9
42 43 42 40 38 38 37 30 27 33 30 17 8 6 8 7 6 9 11 8 3 2 2 3 8 7 7 4 2 7 6 2 5 5 4 7 6 8 8 9 11 6 4 4 2 3 5 7 6 5 2 8 11 5 5 7 3 3 3 5 3 5 6 3 3 5 3 2 3 2 4 5 4 5 7 5 6 5 4 4 0 2 3 7 8 9 10 9
42 41 38 35 37 41 42 36 33 35 25 11 7 8 9 9 7 6 6 6 5 5 6 4 4 5 7 3 3 7 3 2 6 5 4 5 4 7 7 7 10 11 8 7 3 2 3 5 5 1 2 5 7 4 4 4 3 2 3 4 3 3 5 3 2 1 3 2 4 3 5 5 3 7 9 5 5 6 4 3 1 3 4 7 8 9 10 10
38 33 28 31 38 44 44 39 37 34 18 7 10 9 7 8 5 4 5 5 6 9 9 5 4 6 7 5 5 8 4 2 5 5 4 3 3 7 8 4 7 15 13 6 2 4 5 3 4 2 1 3 0 4 4 3 4 5 3 6 2 2 2 2 2 3 2 3 5 3 7 6 2 5 4 2 4 10 8 5 3 4 5 8 8 8 10 10
31 24 19 30 42 44 45 44 40 27 10 6 10 8 6 8 5 4 4 4 7 10 9 7 7 7 8 8 6 8 8 5 6 6 4 4 5 7 11 6 6 15 15 6 2 3 4 2 4 1 2 3 3 4 2 5 3 5 4 5 4 2 1 2 2 2 1 3 5 3 5 6 7 6 1 2 8 12 10 7 6 7 9 9 8 8 9 9
23 11 9 28 42 42 47 48 34 16 6 8 11 8 7 10 9 5 5 5 6 9 10 9 7 5 6 8 6 7 9 8 9 7 5 5 5 5 12 9 5 11 14 9 6 3 3 3 3 2 1 1 2 2 4 1 2 3 2 2 2 2 3 3 3 3 3 3 4 3 3 4 6 7 7 9 12 12 10 8 9 12 12 10 8 9 9 10
13 3 3 20 38 44 50 43 22 8 7 9 10 7 5 8 9 7 6 6 4 5 8 10 8 6 6 7 6 7 8 7 9 8 5 6 5 4 8 9 6 8 12 13 10 4 2 3 3 2 3 1 2 4 8 9 6 3 4 4 3 1 2 1 1 2 4 3 3 3 6 6 4 5 10 12 12 11 11 11 12 12 10 10 10 10 10 10
5 4 2 15 37 47 41 24 10 8 8 8 11 8 5 5 7 7 4 3 1 1 3 6 8 7 6 7 6 6 7 6 7 7 5 6 6 4 6 10 9 8 9 10 9 5 3 3 3 2 2 3 5 5 6 8 7 6 7 8 8 6 4 2 4 2 2 3 4 2 8 10 4 3 6 8 8 8 9 11 11 9 10 11 10 11 11 10
2 4 1 16 43 46 25 8 6 8 8 8 8 5 3 2 4 7 5 2 1 1 0 2 6 8 7 7 7 8 7 6 8 8 6 8 9 6 5 7 9 11 10 8 9 6 4 3 3 3 3 5 6 3 2 4 3 3 3 4 6 7 7 6 6 4 2 3 3 3 6 10 2 2 3 4 5 5 5 8 9 7 9 11 10 10 10 9
3 4 1 16 46 42 14 6 9 7 6 5 3 2 3 2 3 5 7 6 3 2 2 2 3 6 6 5 7 9 9 7 9 11 8 8 8 5 4 6 9 11 9 5 5 3 3 2 2 2 1 3 4 4 3 1 3 2 3 4 6 8 7 6 5 4 3 5 4 2 7 7 1 1 2 3 5 5 5 7 8 7 6 8 10 10 9 9
3 3 2 14 40 33 9 7 10 7 5 4 4 6 5 2 4 7 10 11 6 4 4 3 3 5 5 3 5 9 11 8 8 11 8 6 6 1 2 6 9 10 7 4 5 6 4 4 4 3 2 3 3 2 2 1 2 3 3 4 5 6 6 3 1 2 3 7 9 6 10 7 1 3 2 3 5 5 6 6 6 7 6 7 8 8 8 9
3 2 1 10 24 18 5 5 8 8 8 7 8 11 8 5 6 8 9 11 8 5 5 3 4 5 3 3 2 4 10 9 6 8 6 4 3 1 2 3 6 8 6 3 5 8 6 5 6 6 7 8 6 5 4 4 3 2 2 5 7 9 11 7 2 4 6 5 10 11 12 6 2 4 5 5 5 5 7 6 5 6 6 8 8 8 8 9
3 3 2 4 8 7 5 5 5 6 9 8 6 10 14 11 7 7 8 8 9 10 6 1 4 5 3 4 4 4 8 6 2 4 6 5 3 1 1 1 1 3 2 2 3 5 3 3 9 12 12 13 9 4 5 8 7 6 8 10 11 12 13 9 6 8 6 3 7 14 13 11 9 4 4 6 4 5 7 5 5 7 6 7 9 9 9 9
3 4 5 4 3 5 7 7 5 4 6 9 6 7 16 17 9 6 8 8 8 11 7 1 4 7 6 8 9 8 7 4 1 4 7 6 3 1 0 2 2 1 2 3 3 5 4 4 11 14 15 17 9 4 7 11 11 13 13 12 13 13 13 13 13 11 6 3 12 11 8 14 18 8 6 7 5 6 8 8 8 7 7 7 7 8 9 9
3 3 4 4 3 6 7 8 8 6 7 10 7 6 13 18 13 9 10 9 6 8 7 4 7 14 14 13 10 7 7 5 5 6 5 4 4 3 2 1 0 2 3 2 0 2 5 5 8 9 14 17 6 6 7 10 7 8 12 13 14 15 16 17 18 14 9 9 17 8 10 18 19 9 9 9 8 10 10 8 5 4 5 6 7 9 10 10
2 2 2 2 3 6 9 11 10 9 10 10 7 7 11 15 16 12 8 7 6 8 10 11 15 18 16 13 10 7 8 8 8 8 6 5 5 5 4 2 1 2 2 4 1 0 3 3 2 4 9 15 7 6 6 7 4 4 9 13 15 18 20 20 20 19 14 17 21 12 13 20 13 6 9 9 7 7 3 2 3 4 6 7 9 10 11 11
2 2 1 1 2 3 7 9 8 8 10 9 7 8 9 13 17 14 8 9 11 10 12 17 19 16 15 14 11 11 13 13 13 11 8 8 6 4 5 5 3 1 1 4 2 1 2 2 1 4 3 11 7 6 5 6 6 6 10 15 17 17 16 16 17 17 14 19 23 16 18 20 7 7 8 5 3 4 4 5 6 7 7 8 9 9 9 9
4 3 0 3 3 3 5 5 6 7 9 8 7 6 8 13 17 14 9 11 14 13 14 21 20 11 10 13 13 17 19 16 15 10 8 9 7 4 3 3 6 5 2 2 3 2 3 2 2 4 3 9 6 7 7 7 5 7 16 21 18 11 10 14 16 15 15 19 20 14 17 17 6 6 5 3 5 7 8 9 7 6 6 8 9 9 8 8
5 3 1 2 3 4 4 4 7 8 6 7 9 9 9 12 13 11 7 6 11 13 13 19 19 10 9 15 19 22 19 14 12 7 7 7 5 3 3 4 6 8 6 4 2 2 5 4 1 4 5 7 4 7 8 5 3 8 17 18 14 13 15 17 16 17 18 17 14 13 16 14 5 6 6 6 7 8 8 9 8 7 7 8 9 9 9 9
Wind_Direction
181 172 173 176 181 192 195 194 199 206 209 219 222 225 227 222 220 221 224 225 229 238 243 252 264 274 284 299 307 316 326 328 311 237 187 183 164 150 134 116 101 63 45 29 18 19 27 25 6 2 11 22 24 1 354 7 55 57 78 89 90 156 161 177 181 195 177 168 201 228 159 130 164 266 127 34 42 76 56 37 18 21 45 76 98 108 111 137
179 177 181 181 192 196 200 207 207 205 208 219 223 228 232 229 229 229 230 235 238 243 252 260 269 276 286 305 310 322 329 329 302 245 221 186 163 146 131 112 89 58 44 39 30 29 34 355 338 0 29 28 347 357 18 0 56 84 106 88 157 195 187 203 177 200 196 156 172 192 138 143 166 180 119 89 343 115 82 30 14 45 57 74 88 103 111 125
183 182 182 184 198 195 199 212 213 210 210 219 227 230 234 239 238 238 239 242 246 249 259 265 273 280 292 306 313 327 333 347 335 262 214 173 159 143 128 109 83 64 52 38 19 15 12 317 321 7 41 32 339 6 37 18 46 115 106 85 224 208 163 326 160 169 189 146 139 140 102 131 176 191 102 141 168 185 152 175 161 154 172 131 93 100 108 113
188 184 184 188 193 190 195 201 202 206 211 219 228 233 235 243 241 243 244 244 252 255 260 266 274 284 296 306 317 326 344 29 288 214 161 156 149 138 127 106 77 61 49 30 12 2 351 333 353 61 63 30 328 19 53 6 42 91 95 138 206 174 118 272 211 139 117 124 135 129 87 116 226 223 115 137 137 270 244 207 187 186 177 164 145 110 108 109
192 188 184 187 187 185 187 187 193 196 207 219 227 235 234 242 245 247 245 245 252 255 263 268 275 290 301 310 320 325 7 59 225 178 154 155 146 140 128 100 67 52 39 16 1 15 16 24 52 50 59 47 339 28 44 295 76 74 34 180 192 143 125 234 227 173 121 98 97 107 127 158 233 18 138 152 167 232 238 212 186 171 161 158 149 127 111 106
198 192 186 187 184 183 181 183 194 182 190 212 230 240 237 245 252 255 252 250 253 258 267 270 281 295 306 313 319 330 61 105 236 170 162 161 150 148 133 102 60 38 18 15 15 36 34 33 51 50 48 51 19 67 251 309 63 103 344 290 223 161 143 195 213 195 132 109 123 161 180 127 94 282 191 169 198 235 230 174 152 148 150 146 137 129 118 114
207 197 197 200 192 189 193 192 182 163 179 207 233 243 241 250 254 255 256 256 258 263 270 277 289 295 315 323 323 13 93 247 238 172 171 165 160 159 143 124 56 30 336 42 35 51 54 40 55 100 74 61 135 117 49 345 42 95 147 296 325 138 145 180 184 161 134 135 174 161 119 143 158 189 207 187 223 238 176 120 121 131 136 134 128 128 132 130
222 215 212 214 214 212 207 200 181 178 214 230 238 243 245 250 245 244 245 253 261 268 271 280 294 299 322 326 354 26 351 257 196 175 177 171 172 171 166 187 33 51 66 49 38 78 78 52 63 124 80 71 144 113 57 22 30 74 152 216 342 321 194 202 176 155 159 156 151 114 130 217 196 160 198 215 210 193 150 113 114 123 123 127 128 131 138 135
229 233 232 229 225 222 212 200 199 210 229 246 247 243 246 246 243 242 237 243 252 261 268 278 294 305 318 351 88 46 280 235 176 176 179 178 180 183 191 197 87 124 80 52 49 80 89 93 194 159 134 190 106 93 30 51 350 179 152 187 4 307 287 209 195 195 197 182 139 134 254 260 237 176 245 215 185 180 136 112 120 123 121 131 135 141 142 141
228 235 244 243 236 231 224 215 223 235 246 261 265 260 257 253 240 238 232 233 241 252 261 267 285 305 306 42 92 170 273 215 175 177 179 183 184 189 201 200 172 156 87 67 63 72 102 163 200 146 130 133 75 64 356 84 173 178 136 172 227 292 299 179 212 236 220 252 173 174 236 280 308 217 246 226 180 169 130 126 138 128 136 149 143 147 143 146
231 234 240 247 247 231 226 240 247 251 258 269 277 277 276 277 251 236 225 220 229 239 246 248 265 280 279 79 116 204 267 188 177 176 182 187 186 194 201 222 218 198 133 86 78 77 101 162 166 118 98 70 63 15 351 122 142 131 117 292 307 330 310 211 221 244 187 246 184 159 220 292 352 234 232 208 173 165 145 150 161 141 152 157 149 145 140 147
231 235 237 244 247 216 215 256 264 264 271 276 283 286 291 290 269 241 217 213 221 225 226 222 228 229 165 71 159 220 252 195 182 178 185 189 187 194 195 225 218 200 234 122 98 81 75 54 93 94 100 132 100 15 3 160 105 95 78 350 310 354 333 249 232 214 164 194 180 138 317 297 234 231 250 183 158 157 151 160 172 163 166 162 155 147 146 150
231 233 237 242 242 222 222 258 269 273 276 277 284 293 291 287 279 246 213 212 212 206 206 202 210 176 119 162 229 228 239 210 188 183 185 190 190 195 195 203 197 167 172 125 107 76 63 25 83 104 122 109 128 231 119 48 64 67 50 59 314 1 331 277 289 159 158 182 172 138 293 277 248 252 266 170 154 147 158 178 183 176 176 171 167 154 162 165
237 233 235 240 242 237 237 250 266 278 275 274 281 292 297 291 271 232 207 212 206 195 195 184 184 150 123 237 249 240 234 212 197 189 183 190 187 189 195 190 187 168 128 109 93 59 52 51 82 93 89 93 162 144 40 10 30 17 13 32 5 13 283 293 326 148 158 204 144 119 206 263 270 270 230 182 165 159 174 191 186 185 186 180 178 164 173 185
247 245 245 245 241 239 238 235 243 263 267 271 281 300 302 280 242 206 197 203 189 179 179 165 164 136 93 272 268 236 217 207 200 191 185 189 181 174 181 176 171 154 130 95 94 84 79 96 87 88 29 12 62 75 23 353 8 36 31 321 343 168 266 306 292 162 159 220 110 119 195 266 276 267 203 179 176 173 182 195 191 192 191 184 186 175 174 189
248 252 256 253 245 239 236 227 222 241 258 270 286 300 292 246 193 170 183 181 158 146 143 147 150 125 99 267 273 212 208 205 196 186 181 183 181 169 157 154 146 133 130 98 112 121 79 66 71 104 133 56 70 85 43 13 344 356 104 254 274 186 276 319 306 203 160 134 179 188 216 264 284 286 198 180 183 185 192 202 200 197 195 189 187 181 173 173
243 250 254 251 246 237 230 222 224 236 248 279 296 290 245 173 151 149 157 148 132 113 106 130 138 121 100 243 195 239 206 191 186 179 178 179 179 167 148 133 116 115 100 83 95 95 43 39 33 298 67 70 95 94 58 347 295 319 16 235 249 204 221 296 299 285 144 144 207 222 231 249 267 291 211 201 190 188 206 211 205 201 196 194 187 183 180 173
242 248 250 248 244 233 225 219 222 228 227 295 292 192 128 113 114 126 140 136 116 87 75 104 120 130 257 222 190 209 169 171 175 171 175 176 171 165 148 123 121 109 73 50 45 45 21 19 48 43 27 30 107 106 139 224 207 196 195 209 255 237 214 247 275 239 157 168 208 198 232 254 263 266 220 216 201 197 217 216 207 205 197 197 192 189 187 178
241 243 243 243 242 231 222 217 210 201 212 268 233 132 107 89 90 109 142 143 125 113 163 203 160 154 229 216 168 119 128 151 160 167 170 163 164 160 129 113 109 98 91 72 338 7 80 40 57 101 207 224 195 167 190 205 178 171 178 166 193 233 245 233 253 242 180 170 223 206 221 244 252 255 232 218 209 210 228 227 213 209 201 201 198 197 189 181
237 236 233 234 239 228 216 212 198 183 204 227 179 136 117 99 85 40 198 200 213 184 154 206 190 153 112 197 133 119 123 133 142 172 169 161 161 145 96 85 67 55 114 153 213 302 107 114 171 200 210 210 200 195 202 191 156 147 142 159 196 218 264 255 257 270 185 161 243 223 225 244 245 253 247 215 200 219 232 231 224 212 205 205 201 196 186 181
234 231 227 229 235 223 209 203 184 170 191 202 183 155 167 160 140 209 217 247 256 249 258 241 220 267 324 154 152 142 126 108 50 177 172 168 157 146 130 86 86 48 214 159 143 48 104 151 218 224 212 204 198 195 202 190 169 178 172 218 251 219 251 261 249 283 182 169 259 248 239 254 249 253 256 197 184 220 222 219 224 217 210 207 199 193 181 172
231 229 225 226 230 222 207 191 173 167 184 203 206 207 251 242 91 76 164 219 265 246 237 244 280 292 273 172 168 158 99 104 156 198 182 170 158 168 169 105 136 186 188 122 99 72 154 212 236 229 186 156 185 180 184 203 212 225 215 230 258 237 264 280 271 297 152 179 258 275 259 260 256 255 254 213 203 225 219 213 221 216 209 206 196 188 175 169
226 226 224 222 225 223 203 179 167 176 199 209 210 200 235 336 52 33 124 139 288 246 219 215 224 236 234 202 184 177 128 155 174 214 188 166 162 183 148 140 173 155 134 156 157 166 193 242 242 219 145 148 204 181 157 183 226 219 212 216 242 241 233 271 284 303 272 224 254 287 285 270 265 267 256 231 220 238 233 222 227 221 211 206 195 187 177 173
222 222 223 217 219 216 188 168 170 204 218 223 224 201 163 137 98 43 81 189 291 264 220 207 207 202 200 203 184 180 204 188 165 188 185 167 144 161 157 165 163 135 176 193 184 193 217 245 236 164 156 177 200 195 161 171 240 232 211 203 220 228 216 232 283 322 327 328 317 308 303 277 249 251 255 246 220 250 243 224 233 230 214 197 181 184 183 176
219 219 217 212 216 198 170 167 202 216 214 230 230 202 169 160 112 48 64 29 280 286 266 208 202 203 196 182 170 171 189 239 205 179 180 173 152 144 177 169 141 177 204 192 188 229 239 240 106 126 166 179 185 206 188 181 216 256 224 205 209 212 216 229 335 14 353 327 319 339 296 279 264 244 255 269 246 244 238 223 232 226 202 186 179 184 183 178
218 217 209 208 207 181 165 187 219 206 203 229 221 189 179 181 118 74 88 42 281 265 198 185 182 188 185 165 155 138 101 248 228 167 172 180 173 138 156 167 111 201 193 165 190 246 228 207 146 138 162 171 185 220 214 182 184 258 236 202 200 192 200 217 175 81 258 266 298 52 184 273 290 239 236 239 234 251 250 239 238 223 198 196 190 184 178 176
216 215 207 205 196 178 173 208 196 180 191 232 205 174 185 194 185 227 84 33 282 201 142 201 191 168 172 164 152 132 193 224 118 153 172 183 190 109 152 185 148 193 171 130 238 255 174 187 193 168 148 164 189 222 216 174 163 243 240 175 175 181 199 210 182 188 228 261 319 24 123 271 283 249 223 204 213 262 266 253 246 220 204 206 194 186 181 178
214 214 209 205 195 185 181 177 174 174 182 197 176 171 181 189 194 175 92 76 272 136 134 235 133 141 144 159 158 144 228 177 121 189 187 169 193 84 191 202 176 184 174 151 218 263 149 176 197 186 171 190 202 207 184 157 168 244 201 134 143 161 170 145 143 181 299 353 301 274 135 257 276 265 265 207 216 252 259 254 247 210 201 207 196 190 181 178
211 212 211 205 196 194 194 182 177 188 192 154 152 172 171 173 182 72 83 205 244 92 113 133 119 127 103 146 170 152 39 51 138 213 69 146 191 69 189 203 158 175 197 197 215 251 145 190 192 176 183 205 200 190 170 164 190 210 126 96 74 79 79 79 108 121 48 312 237 212 170 230 272 252 102 85 216 234 247 255 256 202 198 203 191 187 177 174
207 209 210 200 195 199 204 213 205 195 193 175 150 161 154 152 150 97 166 223 199 141 76 120 159 162 144 151 182 159 89 39 9 113 67 116 98 38 183 160 96 141 221 265 246 260 314 255 191 167 185 188 141 87 161 175 172 136 99 67 50 38 38 51 50 80 45 276 221 191 184 190 274 274 156 185 212 218 232 259 288 209 197 200 187 182 178 175
205 204 204 198 196 195 195 217 209 188 191 189 156 146 142 100 79 161 197 230 25 175 137 159 187 143 155 161 172 177 124 65 154 146 146 145 97 59 24 106 83 102 265 277 272 308 334 326 239 225 164 126 101 78 26 53 118 108 88 81 73 356 9 25 358 47 210 262 221 193 188 185 233 261 226 244 262 241 223 239 256 221 202 199 189 183 180 176
209 206 203 200 198 193 192 209 194 177 183 179 157 142 138 104 220 213 208 93 206 199 160 177 193 159 164 169 175 175 151 147 184 167 162 160 169 183 195 192 165 139 237 236 245 324 291 240 258 304 204 141 119 99 29 18 66 94 99 109 114 314 358 357 314 14 221 262 269 199 180 200 238 254 265 266 270 259 232 226 233 218 205 197 187 183 178 171
214 211 207 202 198 196 198 200 182 171 171 165 153 128 132 171 203 209 204 189 205 201 141 128 142 154 161 167 183 170 139 175 180 171 171 157 181 209 219 221 187 167 200 193 187 191 260 293 311 178 266 193 155 158 167 190 170 152 142 142 153 161 136 262 263 271 256 271 304 150 165 244 275 270 243 245 256 265 246 236 237 222 208 196 184 174 167 169
217 211 208 203 200 198 198 195 181 169 162 155 144 139 187 204 203 194 205 211 189 85 101 117 116 140 168 179 186 166 157 221 179 159 171 159 177 214 226 239 218 175 100 145 176 178 210 285 210 179 215 191 181 187 167 141 160 182 156 143 160 160 168 215 217 222 249 280 303 281 172 204 220 240 237 241 265 288 282 263 249 229 200 174 162 159 162 173
218 212 208 201 198 200 196 193 187 172 162 153 150 175 192 207 206 201 209 202 170 89 53 106 117 138 194 232 233 181 167 207 178 153 175 179 191 204 200 214 204 165 128 175 214 165 198 265 236 199 173 169 182 194 122 109 143 227 118 119 174 180 175 205 202 178 180 289 287 218 217 220 210 255 258 251 276 283 311 332 327 164 148 143 156 169 172 176
213 210 207 197 196 200 195 193 188 177 168 157 168 188 199 203 198 201 199 178 169 136 106 100 102 144 200 221 245 214 174 114 156 161 202 206 222 212 201 212 195 181 180 179 182 157 177 276 271 5 35 174 179 165 131 136 176 168 130 174 206 158 151 194 269 74 99 266 263 198 240 282 310 274 254 224 257 271 293 318 204 174 160 163 177 181 178 180
206 204 203 197 200 199 194 192 187 179 176 174 186 197 210 212 189 165 185 164 146 139 137 171 183 168 189 196 210 207 184 116 159 176 196 198 243 212 200 228 196 195 202 182 187 200 168 256 285 105 165 256 214 114 73 28 125 129 176 200 170 59 90 135 254 346 47 258 270 212 234 265 257 265 289 79 257 260 253 242 225 206 189 190 193 187 186 185
207 200 204 206 204 197 192 190 184 179 181 191 200 209 214 221 209 167 176 141 137 156 175 204 199 173 180 193 200 187 180 178 175 185 186 190 241 204 182 204 205 201 206 185 216 240 159 219 300 49 187 292 11 109 66 1 68 126 185 184 124 131 207 121 178 230 195 251 283 261 240 247 217 219 311 153 228 244 239 218 215 216 204 200 198 188 188 183
216 200 223 214 203 194 190 187 181 178 188 191 202 212 210 218 220 195 178 165 156 172 195 210 199 180 185 186 176 171 186 188 169 179 190 188 232 209 177 190 206 201 199 182 194 213 146 203 263 331 276 323 21 141 174 238 22 68 110 145 99 134 175 164 172 173 162 220 270 286 278 251 215 191 186 204 223 230 222 209 216 218 206 197 191 185 188 186
221 215 269 208 197 191 187 183 179 185 194 195 203 201 194 210 213 205 194 189 179 179 204 209 190 181 192 184 174 173 190 194 173 182 205 189 209 233 189 183 184 189 188 189 196 171 120 220 231 316 322 192 189 203 186 184 180 151 147 168 181 112 109 176 207 144 140 178 223 279 283 261 218 178 190 204 220 223 210 208 220 218 201 193 191 188 190 188
213 245 272 184 186 184 180 178 184 192 191 207 212 200 188 194 189 195 204 193 213 235 203 200 194 191 181 174 188 184 178 189 185 189 216 203 201 230 206 186 176 164 163 188 205 187 170 198 166 169 249 209 223 241 206 192 181 176 188 188 182 162 137 179 242 210 139 186 187 207 275 267 232 183 207 208 219 228 216 216 227 215 192 193 194 191 191 187
218 240 243 174 178 175 173 188 197 187 196 207 205 188 178 163 156 183 195 157 178 283 43 184 205 202 188 182 191 183 174 186 191 192 213 214 204 213 220 194 167 154 150 178 205 190 145 119 143 185 209 218 241 265 214 194 150 130 201 189 173 181 173 179 220 218 162 215 180 130 276 276 253 183 242 248 251 263 246 231 234 218 193 193 192 188 189 187
246 229 335 177 175 170 170 214 192 191 212 199 175 152 170 175 128 166 195 188 168 178 192 213 201 199 205 189 177 181 184 191 197 199 209 216 212 215 203 170 150 154 161 173 192 175 112 123 184 228 308 319 308 332 7 41 104 123 241 189 178 203 196 184 200 180 178 211 163 133 258 264 311 290 263 279 282 292 278 244 228 217 196 190 191 187 182 179
236 233 352 179 178 175 183 206 192 203 211 193 211 204 193 217 180 172 193 199 187 154 176 205 195 197 208 172 161 186 191 194 208 208 205 205 210 207 138 173 166 164 176 185 171 169 173 178 179 199 256 313 326 318 318 338 163 203 227 183 187 197 180 176 123 114 239 209 160 191 247 239 291 314 313 343 334 317 291 264 231 211 192 188 192 188 180 174
196 221 15 181 186 191 217 206 191 200 197 191 204 201 199 214 206 193 193 199 202 186 177 197 178 166 170 153 136 194 198 200 208 207 206 205 209 26 32 223 199 181 195 230 175 170 174 171 172 190 218 230 230 216 201 177 169 214 197 170 192 194 184 192 185 194 235 194 159 208 244 247 319 334 339 348 346 315 295 291 262 227 198 188 188 183 182 178
194 207 179 183 197 214 248 236 195 190 196 195 196 198 201 208 209 195 191 202 214 207 195 156 147 144 140 171 184 213 215 215 188 177 195 197 195 253 276 275 206 182 195 34 109 145 140 179 192 196 213 225 227 210 163 146 154 204 205 188 196 202 196 197 214 218 209 145 200 224 239 263 276 283 306 301 291 281 284 282 258 235 208 198 193 184 183 184
221 214 181 173 185 209 233 238 209 178 181 189 196 195 200 208 205 181 197 210 209 204 204 152 160 181 186 187 198 212 208 201 159 173 191 191 175 196 227 80 52 26 44 70 116 127 119 211 213 204 220 230 218 159 159 162 174 199 203 199 200 201 196 198 218 222 158 160 246 229 200 251 260 234 224 250 242 247 253 241 236 230 210 197 187 181 186 186
234 239 197 187 185 197 214 217 203 192 180 182 196 204 201 207 199 179 200 209 188 191 197 200 210 207 199 190 194 202 190 188 204 196 188 179 158 149 118 86 354 341 45 75 88 123 145 212 220 203 230 241 213 121 159 172 175 195 199 204 203 199 199 203 219 221 175 208 249 223 175 233 250 233 219 223 214 225 233 225 224 221 202 184 173 183 192 190
231 279 270 249 207 194 204 208 202 205 204 192 201 213 204 206 203 196 193 182 182 197 193 207 220 213 205 198 191 195 193 192 210 207 183 170 170 166 159 157 239 316 80 121 134 115 158 198 205 168 236 251 226 141 160 165 160 203 209 211 208 205 205 205 217 222 208 226 245 238 231 247 248 210 218 220 210 217 209 160 172 187 195 187 184 194 197 195
224 243 237 236 250 199 198 206 199 204 214 207 210 216 206 206 207 207 192 173 187 197 194 213 222 208 202 205 198 210 212 202 210 207 172 168 187 187 185 180 160 143 141 141 140 258 196 184 101 103 243 259 231 159 164 174 183 222 233 227 218 212 210 211 221 223 215 233 243 244 256 262 236 172 212 215 147 140 147 188 204 203 197 185 192 204 199 195
235 298 162 159 218 203 183 187 182 193 209 204 203 208 210 214 210 207 207 195 195 192 191 210 218 201 198 207 207 220 221 212 215 204 160 172 193 189 206 185 130 127 158 153 133 149 171 171 58 97 211 256 223 172 201 204 186 243 253 241 223 205 209 217 222 218 210 226 238 239 251 256 222 158 191 170 155 179 197 208 208 202 192 183 192 201 195 193
214 299 301 192 224 208 188 185 183 192 200 193 197 197 201 217 214 205 214 219 212 207 200 208 211 192 188 206 214 223 223 219 222 203 162 181 180 142 199 189 144 145 160 167 160 148 150 154 132 142 204 259 223 169 195 193 168 249 254 240 210 197 215 222 223 222 215 218 226 227 238 247 214 166 190 193 197 205 210 210 199 185 180 184 195 194 189 196